ROMMA est une association bénévole à but non lucratif. Votre soutien est indispensable : ADHERER à ROMMA ou FAIRE un DON

Chambon - (38, Isère)

Oisans (2460 m)   Longitude: 06° 10' 42" E   Latitude: 45° 01' 32" N Station partenaire n°803
 

Détail journalier du     <<     >>

Température Humidité Vent Dir Rafale Dir. rafale Neige 1 Neige 2
Heure (°C) (%) (km/h) (km/h) (cm) (cm)
01:00 -7.2304S11S078
02:00 -7.8363NE10NE078
03:00 -8.6546NE12O077
04:00 -8.2494O11O077
05:00 -7.9415SSO12SO077
06:00 -7.8444NE11SO077
07:00 -8.4431NNE4NNE077
08:00 -8.0743NE7NE077
09:00 -7.2613NE8NE076
10:00 -7.3645SE8OSO076
11:00 -6.4594OSO7OSO075
12:00 -4.8542OSO5O075
13:00 -6.1553N5NE075
14:00 -4.6502NE6NE074
15:00 -7.3631NE5ENE075
16:00 -7.0642ENE6SO075
17:00 -9.0797NE21NE076
18:00 -8.88715NE26NE075
19:00 -9.29117NE25NE075
20:00 -9.29215NNE23NE075
21:00 -9.7969N20NNE075
22:00 -9.6953N11N075
23:00 -9.7957N12O074
minuit -9.5929SSO12SSO074

Graphique du 17-11-2019

 

Serveur OMMA